STARLINK-35754

Last updated on Fri Dec 19 2025 00:02:10 GMT+0000 (Coordinated Universal Time)

1 67054U 25294AA 25351.83335648 -.01415920 59910-3 -31826-2 0 9993 2 67054 43.0003 151.2298 0001744 280.2181 156.6527 15.96848291 2120
UTC large
Height (km)
Speed (km/s)
/
Latitude / Longitude
Inclination (degrees)
Orbital Period (minutes)
Azimuth
Elevation
Range (km)
Doppler Factor

Next 0 passes for location: London (51.5072 / 0.1276)

Sorry there are no passes over London.